This is the latest recevied weather packets stored in our database for station/object W3EJE-13. If no packets are shown the sender has not sent any weather packets the latest 10 day(s).
| Time | Temp. | Humidity | Pressure | Rain* | Wind** | Luminosity | Snow |
|---|---|---|---|---|---|---|---|
| 1777157890 | 13.89° C | 99% | 1012.1 hPa | 0 mm | - | 9 W/m² | - |
| 1777157587 | 13.89° C | 99% | 1012.3 hPa | 0 mm | - | 14 W/m² | - |
| 1777157284 | 13.89° C | 99% | 1012.1 hPa | 0 mm | - | 20 W/m² | - |
| 1777156983 | 13.89° C | 99% | 1012 hPa | 0 mm | - | 28 W/m² | - |
| 1777156678 | 13.89° C | 99% | 1011.9 hPa | 0 mm | - | 30 W/m² | - |
| 1777156375 | 13.89° C | 99% | 1012 hPa | 0 mm | - | 29 W/m² | - |
| 1777156070 | 13.89° C | 99% | 1012.3 hPa | 0 mm | - | 20 W/m² | - |
| 1777155767 | 13.89° C | 99% | 1012 hPa | 0 mm | - | 14 W/m² | - |
| 1777155463 | 13.89° C | 99% | 1011.8 hPa | 0 mm | - | 11 W/m² | - |
| 1777155160 | 13.89° C | 99% | 1011.8 hPa | 0 mm | - | 13 W/m² | - |
| 1777154857 | 13.89° C | 99% | 1011.8 hPa | 0 mm | - | 6 W/m² | - |
| 1777154554 | 14.44° C | 99% | 1011.7 hPa | 0 mm | - | 11 W/m² | - |
| 1777154249 | 13.89° C | 99% | 1011.7 hPa | 0 mm | - | 13 W/m² | - |
| 1777153946 | 13.89° C | 99% | 1011.3 hPa | 4.83 mm | - | 8 W/m² | - |
| 1777153642 | 13.89° C | 99% | 1011 hPa | 1.78 mm | - | 8 W/m² | - |
| 1777153338 | 14.44° C | 99% | 1010.9 hPa | 0 mm | - | 23 W/m² | - |
| 1777153035 | 14.44° C | 99% | 1010.8 hPa | 0 mm | - | 39 W/m² | - |
| 1777152731 | 15° C | 99% | 1010.7 hPa | 0 mm | - | 50 W/m² | - |
| 1777152428 | 15° C | 99% | 1010.6 hPa | 0 mm | - | 120 W/m² | - |
| 1777152125 | 14.44° C | 99% | 1011 hPa | 0 mm | - | 111 W/m² | - |
| 1777151819 | 14.44° C | 99% | 1010.7 hPa | 0 mm | - | 92 W/m² | - |
| 1777151516 | 15° C | 99% | 1011.1 hPa | 0 mm | - | 77 W/m² | - |
| 1777151212 | 15° C | 99% | 1010.7 hPa | 0 mm | - | 141 W/m² | - |
| 1777150912 | 14.44° C | 99% | 1010.8 hPa | 0 mm | - | 102 W/m² | - |
| 1777150607 | 14.44° C | 99% | 1010.3 hPa | 0 mm | - | 104 W/m² | - |
* Rain latest hour (hover to see other rain measurements)
** Current wind speed in m/s (hover to see current wind gust speed)